Regional Weather Roundup
Issued by NWS

Home | Current Version | Previous Version | Graphics & Text | Print | Product List | Glossary On
Versions: 1 2 3 4 5 6 7 8 9 10 11 12 13 14 15 16 17 18 19 20 21 22 23 24 25 26 27 28 29 30 31 32 33 34 35 36 37 38 39 40 41 42 43 44 45 46 47 48 49 50
000
ASUS43 KBIS 300302
RWRND

NORTH DAKOTA REGIONAL WEATHER ROUNDUP
NATIONAL WEATHER SERVICE BISMARCK ND
1000 PM CDT FRI MAY 29 2015

NOTE: "FAIR" INDICATES FEW OR NO CLOUDS BELOW 12,000 FEET WITH NO
SIGNIFICANT WEATHER AND/OR OBSTRUCTIONS TO VISIBILITY.


NDZ001>003-009>011-017-300400-
NORTHWEST NORTH DAKOTA

CITY           SKY/WX    TMP DP  RH WIND       PRES   REMARKS
WILLISTON      CLEAR     52  30  43 NE6       30.28F
MINOT          CLEAR     43  32  65 N5        30.29S
MINOT AFB      CLEAR     49  36  60 N6        30.28S
$$

NDZ018>021-031>035-040>046-300400-
SOUTHWEST NORTH DAKOTA

CITY           SKY/WX    TMP DP  RH WIND       PRES   REMARKS
BISMARCK       CLEAR     51  34  52 N7        30.29R
DICKINSON      CLEAR     42  33  70 E8        30.27S
GARRISON         N/A     47  34  60 N5        30.28S
HETTINGER ARPT CLEAR     42  37  82 E6        30.29S
$$

NDZ004>008-012>016-024-026-027-054-300400-
NORTHEAST NORTH DAKOTA

CITY           SKY/WX    TMP DP  RH WIND       PRES   REMARKS
GRAND FORKS    PTCLDY    46  32  58 N14       30.27R
GRND FRKS AFB  CLEAR     45  31  58 N15G22    30.28R
DEVILS LAKE    CLEAR     45  28  53 NE15G22   30.29R
$$

NDZ022-023-025-028>030-036>039-047>053-300400-
SOUTHEAST NORTH DAKOTA

CITY           SKY/WX    TMP DP  RH WIND       PRES   REMARKS
FARGO          MOCLDY    49  36  61 N21       30.22R
JAMESTOWN      PTCLDY    48  35  60 NE13      30.26R
$$



USA.gov is the U.S. government's official web portal to all federal, state and local government web resources and services.